Current weather by "City, St" or "zip code"  
 

Current Conditions: Stuart Powell Field Airport, KY

Fair


57.0 F

Last Updated on Oct 31 2020, 3:55 pm EDT
Humidity: 48%
Wind Speed: S 5.8 mph
Barometer 30.27 in
Dewpoint: 37.4 F
Visibility: 10.00 mi
Precip: --
Heat Index: NA
Wind Chill: 56 F
Current conditions at:

Stuart Powell Field Airport, KY (KDVK)

Lat: 37.5775751 Lon: 84.7694978

Local Radar Image active severe weather and emergency alerts image image weather storm and storm spotter reports image weather observation monitoring service image
Local
Radar
Active
Alerts
Storm Reports Obs
Monitoring

Sign-up For Email & Text Message Weather Alert Notification Services



Advertise Here

Observation History for Stuart Powell Field Airport, KY


Time Wind
(mph)
Vis
(mi)
Weather Precip (in) Temperature (F) Relative
Humidity
Wind
Chill
(F)
Heat
Index
(F)
Pressure
Air Dwpt altimeter
(in)
sea level
(mb)
Rmks
3:55 pm EDT S 5.8 10.00 Fair -- 57.0 37.4 48% 56 NA 30.27 M
2:55 pm EDT SW 4.6 10.00 Fair -- 57.0 37.4 48% 57 NA 30.29 M
2:35 pm EDT SW 3.5 10.00 Fair -- 57.0 37.4 48% NA NA 30.30 M
1:55 pm EDT S 3.5 10.00 Fair -- 55.0 37.4 51% NA NA 30.32 M
12:55 pm EDT SE 4.6 10.00 Fair -- 54.0 41.0 63% 53 NA 30.35 M
11:55 am EDT E 6.9 10.00 Fair -- 50.0 39.2 67% 47 NA 30.38 M
10:55 am EDT SE 3.5 10.00 Fair -- 45.0 37.4 76% NA NA 30.40 M
9:55 am EDT N 0.0 10.00 Fair -- 37.0 35.6 93% NA NA 30.39 M
8:55 am EDT N 0.0 5.00 Fog/Mist -- 32.0 32.0 100% NA NA 30.38 M
7:55 am EDT N 0.0 7.00 Fair -- 32.0 32.0 100% NA NA 30.37 M
7:35 am EDT N 0.0 10.00 Fair -- 32.0 32.0 100% NA NA 30.37 M
6:55 am EDT N 0.0 7.00 Fair -- 32.0 32.0 100% NA NA 30.37 M
5:55 am EDT N 0.0 10.00 Fair -- 32.0 32.0 100% NA NA 30.37 M
4:55 am EDT N 0.0 10.00 Fair -- 32.0 32.0 100% NA NA 30.36 M
3:55 am EDT N 0.0 10.00 Fair -- 32.0 32.0 100% NA NA 30.35 M
2:55 am EDT N 0.0 10.00 Fair -- 34.0 32.0 93% NA NA 30.36 M
2:35 am EDT N 0.0 7.00 Fair -- 32.0 32.0 100% NA NA 30.36 M
1:55 am EDT N 0.0 10.00 Fair -- 34.0 33.8 100% NA NA 30.36 M
12:55 am EDT N 0.0 1.50 Fog/Mist -- 34.0 33.8 100% NA NA 30.35 M
11:55 pm EDT N 0.0 10.00 Fair -- 36.0 33.8 93% NA NA 30.36 M
10:55 pm EDT N 0.0 10.00 Fair -- 36.0 35.6 100% NA NA 30.34 M
9:55 pm EDT N 0.0 10.00 Fair -- 37.0 35.6 93% NA NA 30.33 M
8:55 pm EDT N 0.0 10.00 Fair -- 41.0 35.6 81% NA NA 30.32 M
7:55 pm EDT N 0.0 10.00 Mostly Cloudy -- 43.0 37.4 81% NA NA 30.31 M

Regional Weather Observation


Madison Airport, KY (KI39)

Fair
84.0 F

Lexington Blue Grass Airport, KY (KLEX)

Fair
57.0 F

Frankfort, Capital City Airport, KY (KFFT)

Fair
60.0 F

Somerset, Somerset-Pulaski County - J.T. Wilson Field Airport, KY (KSME)

Fair
61.0 F

Fort Knox, KY (KFTK)

Fair
62.0 F

Louisville, Bowman Field Airport, KY (KLOU)

Fair
61.0 F